Voltar ao catálogo

STARLINK-4108

AtivoComunicaçõesVLEO
NORAD 52834·PAYLOAD·🇺🇸 United States

Lançado Jun 17, 2022 de Cape Canaveral Space Force Station

Loading…

Próximas Passagens (próximas 24 horas)

TLE

AtualizadoSource: CelesTrak SupGP

Época: Sep 15, 2026, 02:03 UTC

1 52834C 22062E   26258.08590278 -.00053062  00000+0 -17060-2 0  2587
2 52834  53.1581 254.0307 0001347  92.6043  27.4860 15.31735409    13

Acompanhe STARLINK-4108 em tempo real com AllMySat

Download on the App Store